SCP
0 0 0 0 0 0 0 0 0 0 0 0 0 0 0 0 0 0 0 0 0 0 0 0 0 1 1 1 1 1 1 1 1 1 1 1 1 1 1 1 0 0 0
1 0 0 0 0 0 0 0 0 0 0 0 0 0 0 0 0 0 0 0 0 0 0 1 1 1 1 2 2 1 1 1 1 1 1 1 1 1 1 1 0 0 0
1 1 0 0 0 0 0 0 0 0 0 0 0 0 0 0 0 0 0 0 0 0 1 1 1 1 1 1 1 1 1 1 1 1 1 1 1 1 1 1 0 0 0
1 2 1 1 0 1 1 0 0 0 0 0 0 0 0 0 0 1 1 0 0 0 1 1 1 1 1 1 1 1 1 2 1 1 1 1 1 1 1 1 0 0 0
1 2 1 1 2 1 2 3 2 3 2 2 1 1 1 0 1 0 0 1 2 1 1 2 2 1 1 1 2 2 1 2 1 2 2 2 2 1 1 1 0 0 1
2 3 2 3 2 1 1 1 2 2 1 1 1 1 1 1 1 1 1 1 1 1 2 2 1 2 1 2 0 1 2 2 1 2 1 1 1 1 1 1 1 1 1
5 4 2 3 3 2 2 4 4 3 2 1 2 1 1 2 2 1 1 1 1 1 1 1 1 1 1 1 1 1 1 2 2 2 2 1 1 1 1 1 1 1 1
6 3 3 3 4 1 3 3 3 2 2 3 4 4 1 1 1 0 0 1 0 0 0 1 1 1 1 1 1 1 1 0 1 1 1 1 1 1 1 1 1 1 0
4 2 2 2 4 4 3 3 2 2 3 2 3 2 1 0 1 0 1 1 1 1 1 1 2 2 2 2 1 1 0 0 0 0 0 0 1 0 0 1 1 1 1
2 2 2 2 3 2 3 3 3 4 3 2 3 2 1 1 1 1 1 1 2 3 2 1 0 1 1 1 1 0 0 0 0 0 0 0 0 0 1 1 1 1 1
2 2 2 3 4 2 3 3 4 4 4 2 2 2 2 2 2 1 1 1 1 1 1 2 1 1 0 0 0 0 0 0 0 0 0 1 0 1 1 0 0 1 1
2 2 2 3 3 3 2 3 3 2 3 2 3 2 3 2 2 2 2 1 1 1 1 1 0 1 0 0 0 0 0 0 0 0 0 0 0 0 0 0 1 1 0
2 3 4 3 3 2 3 3 2 1 1 2 2 2 1 1 1 3 3 2 2 1 1 0 0 0 0 0 0 0 0 0 0 0 0 0 0 0 0 0 0 0 0
7 6 3 3 3 3 3 3 2 3 3 3 2 2 2 2 2 3 4 3 2 1 0 0 0 0 0 0 0 0 0 0 0 0 0 0 0 0 0 0 0 0 0
2 2 2 2 1 1 1 1 1 1 2 2 2 2 2 2 3 3 2 2 2 1 0 1 0 1 0 0 0 0 0 0 0 0 0 0 0 0 0 0 0 0 0
1 1 1 1 1 1 1 1 1 1 1 1 1 2 1 1 1 2 2 2 1 2 1 0 0 1 0 0 0 0 -0 0 0 0 0 0 0 0 0 0 0 0 0
0 0 0 0 0 0 0 0 0 0 0 0 1 1 1 1 1 1 1 1 1 1 1 1 0 1 1 2 1 1 1 1 0 0 0 0 0 0 0 0 0 0 0
0 0 0 0 0 0 0 0 0 0 0 0 0 0 0 0 0 0 0 0 0 0 0 0 0 0 0 0 1 1 1 0 1 0 0 0 0 0 0 0 0 0 0
0 0 0 0 0 0 0 0 0 0 0 0 0 0 0 0 0 0 0 0 0 0 0 0 0 0 0 0 1 1 1 1 1 1 0 0 0 0 0 0 0 0 0
0 0 0 0 0 0 0 0 0 0 0 0 0 0 0 0 0 0 0 0 0 0 0 0 0 0 0 0 0 1 0 0 0 0 0 0 0 0 0 0 0 0 0
0 0 0 0 0 0 0 0 0 0 0 0 0 0 0 0 0 0 0 0 0 0 0 0 0 0 0 0 0 0 0 0 1 1 0 0 0 0 0 0 0 0 0
0 0 0 0 0 0 0 0 0 0 0 0 0 0 0 0 0 0 0 0 0 0 0 0 0 0 0 0 0 0 0 0 0 0 0 0 0 0 0 0 0 0 0
0 0 0 0 0 0 0 0 0 0 0 0 0 0 0 0 0 0 0 0 0 0 0 0 0 0 0 0 0 0 0 0 0 0 0 0 0 0 0 0 0 0 0
0 0 0 0 0 0 0 0 0 0 0 0 0 0 0 0 0 0 0 0 0 0 0 0 0 0 0 0 0 0 0 0 0 0 0 0 0 0 0 0 0 0 0
0 0 0 0 0 0 0 0 0 0 0 0 0 0 0 0 0 0 0 0 0 0 0 0 0 0 0 0 0 0 0 0 0 0 0 0 0 0 0 0 0 0 0
0 0 0 0 0 0 0 0 0 0 0 0 0 0 0 0 0 0 0 0 0 0 0 0 0 0 0 0 0 0 0 0 0 0 0 0 0 0 0 0 0 0 0
Wind_Speed_500mb
39 35 33 31 28 24 29 25 29 31 29 33 33 34 34 35 36 36 37 42 48 51 48 44 42 43 43 44 42 41 45 46 43 42 42 41 37 33 34 35 34 34 32
39 33 33 31 32 32 31 33 32 33 34 34 35 37 37 37 36 37 37 37 44 47 45 47 48 47 48 49 48 47 46 50 50 52 51 45 42 40 37 36 36 34 35
39 36 30 30 30 31 33 33 33 33 34 35 38 38 39 40 41 42 40 40 40 45 44 43 42 48 51 48 51 50 48 51 52 59 56 48 48 43 39 44 35 33 34
46 39 34 32 30 32 31 31 31 32 32 34 36 36 37 38 39 39 40 41 38 37 40 39 42 42 42 42 46 46 47 46 53 59 56 53 54 53 39 48 36 34 36
39 45 35 34 46 37 42 41 39 41 42 44 41 40 40 38 41 41 36 34 36 43 39 41 44 51 54 45 43 44 46 43 51 52 59 59 58 67 49 56 43 46 56
41 41 38 40 44 37 40 40 40 38 37 36 36 40 40 39 37 37 41 44 43 41 44 56 59 68 79 72 69 68 71 72 55 57 51 47 41 35 45 41 42 51 42
50 42 37 37 42 38 38 38 40 39 35 36 41 36 37 47 41 43 40 47 50 50 53 61 73 75 74 69 67 68 58 53 49 51 50 45 52 40 49 42 39 38 36
54 38 38 36 38 34 38 45 47 36 36 36 41 29 28 36 39 51 47 50 52 49 53 42 42 49 45 36 38 48 49 55 57 54 56 61 49 34 45 46 42 45 45
48 36 32 33 33 48 39 37 38 38 39 31 46 44 17 22 27 36 36 40 28 29 33 32 39 39 50 49 47 36 38 38 43 32 31 26 27 35 33 31 30 31 33
41 36 31 34 33 30 31 36 34 35 37 36 36 42 41 48 47 34 42 42 40 43 33 31 34 36 49 35 43 53 29 37 31 21 18 20 21 26 25 28 28 29 28
39 35 29 27 31 36 27 30 34 34 31 34 42 45 42 42 39 40 42 39 33 29 25 41 41 40 44 53 40 27 35 27 18 18 20 20 28 25 25 28 25 25 29
27 27 23 24 24 30 25 28 30 33 37 39 43 45 39 38 35 42 40 41 44 39 38 38 40 45 46 44 43 37 32 37 29 24 29 37 30 25 22 17 18 20 24
21 23 20 18 17 23 25 34 33 34 35 34 33 34 37 40 43 46 41 45 45 41 41 42 35 28 33 35 48 64 51 22 31 30 31 30 31 26 22 22 20 21 26
24 18 13 13 14 22 22 25 29 24 30 38 37 38 42 42 49 49 42 44 43 47 39 36 18 21 28 19 35 26 26 22 22 15 24 26 29 29 29 31 31 32 34
26 29 23 24 27 28 28 34 33 34 39 42 43 45 44 46 43 42 43 39 39 42 42 32 25 28 26 20 19 43 34 20 44 20 23 41 39 39 38 39 38 40 42
11 9 8 11 12 13 17 16 15 18 24 23 25 29 30 28 33 37 44 42 42 45 48 44 35 27 20 8 12 17 26 37 36 49 47 57 52 48 47 46 46 47 48
23 19 14 14 12 10 9 10 11 14 16 18 22 28 31 32 37 38 38 40 41 42 52 52 49 47 42 36 27 37 39 45 39 43 54 60 50 54 58 60 60 60 59
21 17 14 10 9 7 10 10 10 13 14 16 18 20 21 21 25 28 30 35 39 44 50 52 62 62 57 57 64 68 65 64 72 69 71 72 64 57 57 65 74 77 75
15 12 11 9 8 11 12 12 13 16 18 20 22 24 25 26 29 27 29 29 28 29 34 42 45 49 48 46 49 53 51 55 60 61 73 81 87 89 80 85 77 75 85
12 10 11 12 15 17 15 20 24 28 29 26 28 28 29 29 29 33 38 36 33 35 36 41 47 48 47 48 49 50 53 51 51 49 46 47 55 60 66 64 64 67 74
12 14 16 17 18 21 22 38 43 40 33 31 30 29 27 34 43 43 35 32 37 33 35 40 46 48 48 47 46 48 53 50 47 42 47 52 58 62 65 73 72 69 67
18 19 18 19 21 21 36 46 48 47 43 30 28 25 25 27 19 28 34 36 43 37 34 34 39 43 44 43 43 42 43 46 52 44 54 58 53 53 51 55 59 39 49
22 22 22 23 25 27 38 49 54 42 32 23 22 21 21 23 36 37 36 34 36 39 41 43 44 43 47 43 50 57 48 52 59 55 60 69 54 65 60 60 71 77 89
23 23 21 20 20 27 38 44 23 18 19 25 30 31 28 25 32 36 41 36 33 35 36 40 47 50 53 54 57 64 66 69 75 75 61 79 65 74 69 66 65 70 71
17 16 15 13 12 27 29 21 15 14 19 22 20 21 22 21 31 45 42 35 35 31 30 32 40 47 50 50 46 43 50 52 60 58 55 61 58 60 55 60 60 60 57
12 8 6 8 12 18 20 21 18 18 20 19 17 18 22 26 39 40 35 29 28 29 39 41 41 38 42 50 50 50 56 60 58 64 48 48 49 56 61 49 50 49 49
Wind_Direction_500mb
211 217 219 222 235 242 242 248 245 246 255 255 254 258 261 260 260 260 262 269 274 278 272 265 260 257 259 263 267 268 264 261 264 263 263 266 264 261 261 261 260 260 261
219 219 225 227 229 235 240 245 249 251 257 259 259 262 262 261 263 264 266 268 276 278 285 268 263 262 266 267 267 266 262 259 263 262 262 262 262 258 259 257 257 258 260
216 219 228 234 237 238 240 242 245 250 254 258 261 261 261 262 267 271 271 270 272 279 281 285 282 273 268 271 271 271 269 270 267 268 265 260 254 254 254 260 253 259 258
212 230 225 234 243 243 244 248 251 257 260 264 268 267 266 268 267 264 273 275 273 270 278 283 282 277 275 269 269 266 264 268 276 273 261 256 258 255 240 255 252 261 261
225 221 226 232 234 234 230 230 233 243 246 249 253 263 269 264 267 271 269 277 272 266 264 267 265 272 278 272 267 271 274 268 277 272 270 256 253 267 278 250 259 271 260
223 228 227 228 241 237 243 246 253 253 261 266 267 269 269 267 267 268 275 273 271 268 265 272 270 276 281 276 276 278 275 282 275 262 259 256 260 273 259 263 250 255 248
226 221 223 236 241 238 237 246 246 251 262 267 264 268 272 264 271 271 276 269 264 280 284 277 279 279 276 280 281 274 273 262 254 258 250 251 257 260 261 253 249 256 262
225 214 221 225 236 244 243 242 252 250 255 256 262 266 278 277 261 278 295 277 277 285 281 282 282 284 284 280 276 284 268 258 253 255 259 257 251 263 251 257 254 244 248
239 229 224 223 228 238 249 254 254 251 252 258 259 259 264 265 286 283 284 265 272 259 270 282 283 282 280 277 270 268 257 254 261 248 253 254 247 249 246 249 252 248 244
225 233 234 227 234 241 243 249 256 258 260 256 263 264 262 280 277 289 269 276 271 273 274 277 283 282 266 263 272 266 246 237 227 236 255 267 266 262 260 257 255 249 252
217 215 228 231 248 256 246 251 254 256 255 256 259 270 270 275 269 268 276 283 287 274 302 293 287 279 274 273 266 241 213 218 228 257 247 274 269 262 258 257 258 262 256
205 207 215 226 229 240 256 254 265 261 265 258 263 265 265 266 265 268 269 276 281 286 293 289 291 284 273 264 244 236 242 252 239 226 234 255 260 266 254 248 244 249 251
203 222 203 217 243 272 254 252 264 266 267 271 266 264 263 268 272 276 272 276 283 285 284 290 283 274 265 263 255 252 260 229 236 243 254 261 264 252 249 250 250 258 261
186 197 225 204 220 231 237 243 253 267 258 260 267 268 264 266 269 272 278 277 287 285 282 276 270 268 295 281 268 241 211 228 243 248 273 271 259 258 253 256 260 264 263
210 224 222 235 243 251 258 266 274 276 266 268 270 272 273 276 275 276 278 275 275 282 283 304 261 264 284 261 295 242 221 285 233 238 272 274 271 263 259 258 256 259 265
196 204 224 242 258 274 278 282 286 283 284 289 287 282 288 290 290 283 274 274 270 271 285 269 294 269 271 237 258 247 231 250 271 240 253 258 267 265 263 262 261 267 268
103 96 77 62 46 24 356 337 327 325 311 313 306 299 294 295 289 288 294 289 283 276 284 274 264 277 282 284 273 273 268 252 259 250 251 256 257 266 265 262 261 263 265
97 88 82 61 43 12 343 335 327 311 316 311 302 304 303 304 306 310 313 309 297 290 288 287 285 284 279 273 276 272 271 270 265 276 260 265 266 264 257 259 262 262 261
79 66 51 30 2 342 326 321 319 313 307 302 302 300 302 302 300 299 296 299 297 291 291 294 295 299 302 296 288 285 288 286 274 267 267 268 259 269 266 268 269 265 258
59 34 13 356 341 330 315 277 299 301 300 298 295 295 296 297 292 272 287 292 300 288 288 286 287 287 285 285 282 281 278 279 278 286 272 272 272 261 262 261 257 254 260
357 355 345 343 331 333 278 285 291 299 306 304 299 296 298 278 288 292 303 297 296 300 294 291 289 288 287 288 287 287 288 284 277 275 273 269 261 260 262 265 263 263 260
335 331 331 324 319 313 291 285 288 294 298 301 299 297 300 315 305 319 308 308 305 311 302 297 292 290 290 289 287 288 284 283 280 270 275 276 269 269 261 256 257 255 247
321 321 319 317 312 308 295 294 302 306 303 303 291 271 284 287 284 288 295 305 314 304 298 294 290 288 289 287 281 279 281 278 276 275 274 278 271 268 266 264 263 260 259
323 322 322 322 328 296 296 305 321 348 312 275 280 296 302 314 312 312 313 314 310 306 303 298 295 297 297 294 289 284 284 281 278 276 274 276 270 271 269 266 270 267 262
336 345 343 330 277 284 304 339 354 14 309 299 310 333 333 321 312 313 318 318 312 311 303 305 301 299 299 301 298 297 287 282 283 283 274 274 275 276 276 271 272 274 273
1 2 334 356 2 344 352 356 3 5 344 337 343 330 318 315 315 320 325 325 320 320 319 324 324 310 300 301 299 294 290 285 283 285 291 270 271 271 281 272 277 277 267
Wind_Speed_850mb
39 35 33 31 28 24 29 25 29 31 29 33 33 34 34 35 36 36 37 42 48 51 48 44 42 43 43 44 42 41 45 46 43 42 42 41 37 33 34 35 34 34 32
39 33 33 31 32 32 31 33 32 33 34 34 35 37 37 37 36 37 37 37 44 47 45 47 48 47 48 49 48 47 46 50 50 52 51 45 42 40 37 36 36 34 35
39 36 30 30 30 31 33 33 33 33 34 35 38 38 39 40 41 42 40 40 40 45 44 43 42 48 51 48 51 50 48 51 52 59 56 48 48 43 39 44 35 33 34
46 39 34 32 30 32 31 31 31 32 32 34 36 36 37 38 39 39 40 41 38 37 40 39 42 42 42 42 46 46 47 46 53 59 56 53 54 53 39 48 36 34 36
39 45 35 34 46 37 42 41 39 41 42 44 41 40 40 38 41 41 36 34 36 43 39 41 44 51 54 45 43 44 46 43 51 52 59 59 58 67 49 56 43 46 56
41 41 38 40 44 37 40 40 40 38 37 36 36 40 40 39 37 37 41 44 43 41 44 56 59 68 79 72 69 68 71 72 55 57 51 47 41 35 45 41 42 51 42
50 42 37 37 42 38 38 38 40 39 35 36 41 36 37 47 41 43 40 47 50 50 53 61 73 75 74 69 67 68 58 53 49 51 50 45 52 40 49 42 39 38 36
54 38 38 36 38 34 38 45 47 36 36 36 41 29 28 36 39 51 47 50 52 49 53 42 42 49 45 36 38 48 49 55 57 54 56 61 49 34 45 46 42 45 45
48 36 32 33 33 48 39 37 38 38 39 31 46 44 17 22 27 36 36 40 28 29 33 32 39 39 50 49 47 36 38 38 43 32 31 26 27 35 33 31 30 31 33
41 36 31 34 33 30 31 36 34 35 37 36 36 42 41 48 47 34 42 42 40 43 33 31 34 36 49 35 43 53 29 37 31 21 18 20 21 26 25 28 28 29 28
39 35 29 27 31 36 27 30 34 34 31 34 42 45 42 42 39 40 42 39 33 29 25 41 41 40 44 53 40 27 35 27 18 18 20 20 28 25 25 28 25 25 29
27 27 23 24 24 30 25 28 30 33 37 39 43 45 39 38 35 42 40 41 44 39 38 38 40 45 46 44 43 37 32 37 29 24 29 37 30 25 22 17 18 20 24
21 23 20 18 17 23 25 34 33 34 35 34 33 34 37 40 43 46 41 45 45 41 41 42 35 28 33 35 48 64 51 22 31 30 31 30 31 26 22 22 20 21 26
24 18 13 13 14 22 22 25 29 24 30 38 37 38 42 42 49 49 42 44 43 47 39 36 18 21 28 19 35 26 26 22 22 15 24 26 29 29 29 31 31 32 34
26 29 23 24 27 28 28 34 33 34 39 42 43 45 44 46 43 42 43 39 39 42 42 32 25 28 26 20 19 43 34 20 44 20 23 41 39 39 38 39 38 40 42
11 9 8 11 12 13 17 16 15 18 24 23 25 29 30 28 33 37 44 42 42 45 48 44 35 27 20 8 12 17 26 37 36 49 47 57 52 48 47 46 46 47 48
23 19 14 14 12 10 9 10 11 14 16 18 22 28 31 32 37 38 38 40 41 42 52 52 49 47 42 36 27 37 39 45 39 43 54 60 50 54 58 60 60 60 59
21 17 14 10 9 7 10 10 10 13 14 16 18 20 21 21 25 28 30 35 39 44 50 52 62 62 57 57 64 68 65 64 72 69 71 72 64 57 57 65 74 77 75
15 12 11 9 8 11 12 12 13 16 18 20 22 24 25 26 29 27 29 29 28 29 34 42 45 49 48 46 49 53 51 55 60 61 73 81 87 89 80 85 77 75 85
12 10 11 12 15 17 15 20 24 28 29 26 28 28 29 29 29 33 38 36 33 35 36 41 47 48 47 48 49 50 53 51 51 49 46 47 55 60 66 64 64 67 74
12 14 16 17 18 21 22 38 43 40 33 31 30 29 27 34 43 43 35 32 37 33 35 40 46 48 48 47 46 48 53 50 47 42 47 52 58 62 65 73 72 69 67
18 19 18 19 21 21 36 46 48 47 43 30 28 25 25 27 19 28 34 36 43 37 34 34 39 43 44 43 43 42 43 46 52 44 54 58 53 53 51 55 59 39 49
22 22 22 23 25 27 38 49 54 42 32 23 22 21 21 23 36 37 36 34 36 39 41 43 44 43 47 43 50 57 48 52 59 55 60 69 54 65 60 60 71 77 89
23 23 21 20 20 27 38 44 23 18 19 25 30 31 28 25 32 36 41 36 33 35 36 40 47 50 53 54 57 64 66 69 75 75 61 79 65 74 69 66 65 70 71
17 16 15 13 12 27 29 21 15 14 19 22 20 21 22 21 31 45 42 35 35 31 30 32 40 47 50 50 46 43 50 52 60 58 55 61 58 60 55 60 60 60 57
12 8 6 8 12 18 20 21 18 18 20 19 17 18 22 26 39 40 35 29 28 29 39 41 41 38 42 50 50 50 56 60 58 64 48 48 49 56 61 49 50 49 49
Wind_Direction_850mb
211 217 219 222 235 242 242 248 245 246 255 255 254 258 261 260 260 260 262 269 274 278 272 265 260 257 259 263 267 268 264 261 264 263 263 266 264 261 261 261 260 260 261
219 219 225 227 229 235 240 245 249 251 257 259 259 262 262 261 263 264 266 268 276 278 285 268 263 262 266 267 267 266 262 259 263 262 262 262 262 258 259 257 257 258 260
216 219 228 234 237 238 240 242 245 250 254 258 261 261 261 262 267 271 271 270 272 279 281 285 282 273 268 271 271 271 269 270 267 268 265 260 254 254 254 260 253 259 258
212 230 225 234 243 243 244 248 251 257 260 264 268 267 266 268 267 264 273 275 273 270 278 283 282 277 275 269 269 266 264 268 276 273 261 256 258 255 240 255 252 261 261
225 221 226 232 234 234 230 230 233 243 246 249 253 263 269 264 267 271 269 277 272 266 264 267 265 272 278 272 267 271 274 268 277 272 270 256 253 267 278 250 259 271 260
223 228 227 228 241 237 243 246 253 253 261 266 267 269 269 267 267 268 275 273 271 268 265 272 270 276 281 276 276 278 275 282 275 262 259 256 260 273 259 263 250 255 248
226 221 223 236 241 238 237 246 246 251 262 267 264 268 272 264 271 271 276 269 264 280 284 277 279 279 276 280 281 274 273 262 254 258 250 251 257 260 261 253 249 256 262
225 214 221 225 236 244 243 242 252 250 255 256 262 266 278 277 261 278 295 277 277 285 281 282 282 284 284 280 276 284 268 258 253 255 259 257 251 263 251 257 254 244 248
239 229 224 223 228 238 249 254 254 251 252 258 259 259 264 265 286 283 284 265 272 259 270 282 283 282 280 277 270 268 257 254 261 248 253 254 247 249 246 249 252 248 244
225 233 234 227 234 241 243 249 256 258 260 256 263 264 262 280 277 289 269 276 271 273 274 277 283 282 266 263 272 266 246 237 227 236 255 267 266 262 260 257 255 249 252
217 215 228 231 248 256 246 251 254 256 255 256 259 270 270 275 269 268 276 283 287 274 302 293 287 279 274 273 266 241 213 218 228 257 247 274 269 262 258 257 258 262 256
205 207 215 226 229 240 256 254 265 261 265 258 263 265 265 266 265 268 269 276 281 286 293 289 291 284 273 264 244 236 242 252 239 226 234 255 260 266 254 248 244 249 251
203 222 203 217 243 272 254 252 264 266 267 271 266 264 263 268 272 276 272 276 283 285 284 290 283 274 265 263 255 252 260 229 236 243 254 261 264 252 249 250 250 258 261
186 197 225 204 220 231 237 243 253 267 258 260 267 268 264 266 269 272 278 277 287 285 282 276 270 268 295 281 268 241 211 228 243 248 273 271 259 258 253 256 260 264 263
210 224 222 235 243 251 258 266 274 276 266 268 270 272 273 276 275 276 278 275 275 282 283 304 261 264 284 261 295 242 221 285 233 238 272 274 271 263 259 258 256 259 265
196 204 224 242 258 274 278 282 286 283 284 289 287 282 288 290 290 283 274 274 270 271 285 269 294 269 271 237 258 247 231 250 271 240 253 258 267 265 263 262 261 267 268
103 96 77 62 46 24 356 337 327 325 311 313 306 299 294 295 289 288 294 289 283 276 284 274 264 277 282 284 273 273 268 252 259 250 251 256 257 266 265 262 261 263 265
97 88 82 61 43 12 343 335 327 311 316 311 302 304 303 304 306 310 313 309 297 290 288 287 285 284 279 273 276 272 271 270 265 276 260 265 266 264 257 259 262 262 261
79 66 51 30 2 342 326 321 319 313 307 302 302 300 302 302 300 299 296 299 297 291 291 294 295 299 302 296 288 285 288 286 274 267 267 268 259 269 266 268 269 265 258
59 34 13 356 341 330 315 277 299 301 300 298 295 295 296 297 292 272 287 292 300 288 288 286 287 287 285 285 282 281 278 279 278 286 272 272 272 261 262 261 257 254 260
357 355 345 343 331 333 278 285 291 299 306 304 299 296 298 278 288 292 303 297 296 300 294 291 289 288 287 288 287 287 288 284 277 275 273 269 261 260 262 265 263 263 260
335 331 331 324 319 313 291 285 288 294 298 301 299 297 300 315 305 319 308 308 305 311 302 297 292 290 290 289 287 288 284 283 280 270 275 276 269 269 261 256 257 255 247
321 321 319 317 312 308 295 294 302 306 303 303 291 271 284 287 284 288 295 305 314 304 298 294 290 288 289 287 281 279 281 278 276 275 274 278 271 268 266 264 263 260 259
323 322 322 322 328 296 296 305 321 348 312 275 280 296 302 314 312 312 313 314 310 306 303 298 295 297 297 294 289 284 284 281 278 276 274 276 270 271 269 266 270 267 262
336 345 343 330 277 284 304 339 354 14 309 299 310 333 333 321 312 313 318 318 312 311 303 305 301 299 299 301 298 297 287 282 283 283 274 274 275 276 276 271 272 274 273
1 2 334 356 2 344 352 356 3 5 344 337 343 330 318 315 315 320 325 325 320 320 319 324 324 310 300 301 299 294 290 285 283 285 291 270 271 271 281 272 277 277 267